Zurück zum Katalog

THOR AGENA B DEB

AktivUNKNOWN
NORAD 2092·DEBRIS·🇺🇸 United States

Gestartet Nov 29, 1965 von Vandenberg Space Force Base

Loading…

Nächste Überflüge (nächste 24 Stunden)

TLE

AktuellSource: Space-Track

Epoche: Sep 14, 2026, 12:32 UTC

1 02092U 65098H   26257.52227998  .00000569  00000-0  18914-3 0  9993
2 02092  79.8613 284.4306 1295026 282.9554  63.0315 12.35206144691457

Verfolge THOR AGENA B DEB in Echtzeit mit AllMySat

Download on the App Store